Time,TemperatureF,DewpointF,PressureIn,WindDirection,WindDirectionDegrees,WindSpeedMPH,WindSpeedGustMPH,Humidity,HourlyPrecipIn,Conditions,Clouds,dailyrainin,SoftwareType,DateUTC
2013-01-04 00:00:00,37.2,35.4,30.10,SSW,200,1.0,3.0,93,0.00,,,0.12,Wunderground PWS Mod,2013-01-04 08:00:00,
2013-01-04 00:10:00,37.3,35.5,30.10,SSW,200,1.0,2.0,93,0.00,,,0.00,Wunderground PWS Mod,2013-01-04 08:10:00,
2013-01-04 00:20:00,37.5,35.7,30.10,SSW,196,0.0,3.0,93,0.00,,,0.00,Wunderground PWS Mod,2013-01-04 08:20:00,
2013-01-04 00:30:00,37.6,35.8,30.10,WSW,238,0.0,2.0,93,0.00,,,0.00,Wunderground PWS Mod,2013-01-04 08:30:00,
2013-01-04 00:40:00,37.5,35.7,30.11,WSW,238,0.0,1.0,93,0.00,,,0.00,Wunderground PWS Mod,2013-01-04 08:40:00,
2013-01-04 00:50:00,37.2,35.4,30.11,WSW,238,0.0,1.0,93,0.00,,,0.01,Wunderground PWS Mod,2013-01-04 08:50:00,
2013-01-04 00:59:00,37.2,35.4,30.11,SW,216,0.0,2.0,93,0.00,,,0.01,Wunderground PWS Mod,2013-01-04 08:59:00,
2013-01-04 01:09:00,37.2,35.4,30.12,SW,216,0.0,3.0,93,0.00,,,0.01,Wunderground PWS Mod,2013-01-04 09:09:00,
2013-01-04 01:19:00,37.3,35.5,30.13,SW,216,1.0,2.0,93,0.00,,,0.01,Wunderground PWS Mod,2013-01-04 09:19:00,
2013-01-04 01:29:00,37.6,35.8,30.13,SSW,198,1.0,2.0,93,0.00,,,0.01,Wunderground PWS Mod,2013-01-04 09:29:00,
2013-01-04 01:39:00,37.8,36.0,30.13,South,178,1.0,2.0,93,0.00,,,0.02,Wunderground PWS Mod,2013-01-04 09:39:00,
2013-01-04 01:50:00,37.8,36.0,30.14,SSW,192,1.0,3.0,93,0.00,,,0.02,Wunderground PWS Mod,2013-01-04 09:50:00,
2013-01-04 01:59:00,37.8,36.0,30.14,SSW,203,2.0,3.0,93,0.01,,,0.02,Wunderground PWS Mod,2013-01-04 09:59:00,
2013-01-04 02:09:00,37.8,36.0,30.15,South,184,2.0,6.0,93,0.00,,,0.02,Wunderground PWS Mod,2013-01-04 10:09:00,
2013-01-04 02:19:00,38.0,36.4,30.15,SSW,192,2.0,4.0,94,0.00,,,0.02,Wunderground PWS Mod,2013-01-04 10:19:00,
2013-01-04 02:30:00,38.2,36.6,30.15,SSW,192,2.0,4.0,94,0.00,,,0.02,Wunderground PWS Mod,2013-01-04 10:30:00,
2013-01-04 02:40:00,38.5,36.9,30.15,SSE,161,2.0,3.0,94,0.00,,,0.02,Wunderground PWS Mod,2013-01-04 10:40:00,
2013-01-04 02:50:00,38.9,37.3,30.15,South,188,2.0,4.0,94,0.00,,,0.02,Wunderground PWS Mod,2013-01-04 10:50:00,
2013-01-04 03:00:00,39.3,37.7,30.15,SE,146,2.0,4.0,94,0.00,,,0.02,Wunderground PWS Mod,2013-01-04 11:00:00,
2013-01-04 03:10:00,39.5,37.9,30.16,South,175,2.0,4.0,94,0.00,,,0.02,Wunderground PWS Mod,2013-01-04 11:10:00,
2013-01-04 03:20:00,39.5,37.9,30.16,South,182,2.0,5.0,94,0.00,,,0.02,Wunderground PWS Mod,2013-01-04 11:20:00,
2013-01-04 03:30:00,39.3,37.7,30.16,South,188,2.0,5.0,94,0.00,,,0.02,Wunderground PWS Mod,2013-01-04 11:30:00,
2013-01-04 03:40:00,39.3,37.7,30.17,South,190,2.0,4.0,94,0.00,,,0.02,Wunderground PWS Mod,2013-01-04 11:40:00,
2013-01-04 03:50:00,39.5,37.9,30.17,South,177,2.0,3.0,94,0.00,,,0.02,Wunderground PWS Mod,2013-01-04 11:50:00,
2013-01-04 04:00:00,39.6,38.0,30.17,South,181,2.0,6.0,94,0.00,,,0.02,Wunderground PWS Mod,2013-01-04 12:00:00,
2013-01-04 04:10:00,39.6,38.0,30.16,South,186,2.0,7.0,94,0.00,,,0.02,Wunderground PWS Mod,2013-01-04 12:10:00,
2013-01-04 04:20:00,39.8,38.2,30.16,South,188,3.0,5.0,94,0.00,,,0.02,Wunderground PWS Mod,2013-01-04 12:20:00,
2013-01-04 04:30:00,39.8,38.5,30.16,South,180,2.0,6.0,95,0.00,,,0.02,Wunderground PWS Mod,2013-01-04 12:30:00,
2013-01-04 04:40:00,39.8,38.5,30.17,South,176,3.0,7.0,95,0.00,,,0.02,Wunderground PWS Mod,2013-01-04 12:40:00,
2013-01-04 04:50:00,39.6,38.3,30.18,SSE,156,2.0,5.0,95,0.00,,,0.02,Wunderground PWS Mod,2013-01-04 12:50:00,
2013-01-04 05:00:00,39.8,38.5,30.18,South,184,2.0,5.0,95,0.00,,,0.02,Wunderground PWS Mod,2013-01-04 13:00:00,
2013-01-04 05:10:00,39.9,38.6,30.18,SSW,194,2.0,4.0,95,0.00,,,0.02,Wunderground PWS Mod,2013-01-04 13:10:00,
2013-01-04 05:20:00,40.1,38.8,30.18,South,188,2.0,7.0,95,0.00,,,0.02,Wunderground PWS Mod,2013-01-04 13:20:00,
2013-01-04 05:30:00,40.2,38.9,30.18,SSW,194,2.0,4.0,95,0.00,,,0.02,Wunderground PWS Mod,2013-01-04 13:30:00,
2013-01-04 05:40:00,40.3,39.0,30.18,SSW,192,2.0,4.0,95,0.00,,,0.02,Wunderground PWS Mod,2013-01-04 13:40:00,
2013-01-04 05:50:00,40.8,39.5,30.19,South,182,2.0,4.0,95,0.00,,,0.02,Wunderground PWS Mod,2013-01-04 13:50:00,
2013-01-04 05:59:00,41.1,39.8,30.19,SSE,168,2.0,5.0,95,0.00,,,0.02,Wunderground PWS Mod,2013-01-04 13:59:00,
2013-01-04 06:09:00,41.1,39.8,30.20,South,186,2.0,3.0,95,0.00,,,0.02,Wunderground PWS Mod,2013-01-04 14:09:00,
2013-01-04 06:19:00,41.1,39.8,30.20,SSE,165,2.0,4.0,95,0.00,,,0.02,Wunderground PWS Mod,2013-01-04 14:19:00,
2013-01-04 06:29:00,41.1,39.8,30.20,South,171,1.0,3.0,95,0.00,,,0.02,Wunderground PWS Mod,2013-01-04 14:29:00,
2013-01-04 06:40:00,41.1,39.8,30.20,SSW,193,1.0,3.0,95,0.00,,,0.02,Wunderground PWS Mod,2013-01-04 14:40:00,
2013-01-04 06:50:00,41.2,39.9,30.21,South,181,1.0,3.0,95,0.00,,,0.02,Wunderground PWS Mod,2013-01-04 14:50:00,
2013-01-04 06:59:00,41.3,40.0,30.21,South,189,1.0,4.0,95,0.00,,,0.02,Wunderground PWS Mod,2013-01-04 14:59:00,
2013-01-04 07:09:00,41.6,40.3,30.21,SSW,194,1.0,3.0,95,0.00,,,0.03,Wunderground PWS Mod,2013-01-04 15:09:00,
2013-01-04 07:20:00,41.8,40.5,30.21,SSE,167,2.0,4.0,95,0.00,,,0.03,Wunderground PWS Mod,2013-01-04 15:20:00,
2013-01-04 07:30:00,41.8,40.5,30.21,South,177,1.0,3.0,95,0.00,,,0.03,Wunderground PWS Mod,2013-01-04 15:30:00,
2013-01-04 07:40:00,41.9,40.6,30.21,SSE,158,1.0,4.0,95,0.00,,,0.03,Wunderground PWS Mod,2013-01-04 15:40:00,
2013-01-04 07:50:00,41.9,40.6,30.21,SSE,155,1.0,4.0,95,0.00,,,0.03,Wunderground PWS Mod,2013-01-04 15:50:00,
2013-01-04 08:00:00,41.9,40.6,30.21,SSE,168,2.0,3.0,95,0.00,,,0.03,Wunderground PWS Mod,2013-01-04 16:00:00,
2013-01-04 08:10:00,41.9,40.6,30.21,SSW,193,1.0,2.0,95,0.00,,,0.03,Wunderground PWS Mod,2013-01-04 16:10:00,
2013-01-04 08:20:00,41.9,40.6,30.21,South,175,1.0,3.0,95,0.00,,,0.03,Wunderground PWS Mod,2013-01-04 16:20:00,
2013-01-04 08:30:00,41.8,40.5,30.21,SSE,156,1.0,4.0,95,0.00,,,0.03,Wunderground PWS Mod,2013-01-04 16:30:00,
2013-01-04 08:40:00,41.6,40.3,30.23,SSE,166,1.0,2.0,95,0.00,,,0.03,Wunderground PWS Mod,2013-01-04 16:40:00,
2013-01-04 08:50:00,41.8,40.5,30.23,South,169,2.0,3.0,95,0.00,,,0.03,Wunderground PWS Mod,2013-01-04 16:50:00,
2013-01-04 09:00:00,41.9,40.6,30.23,South,188,2.0,3.0,95,0.00,,,0.03,Wunderground PWS Mod,2013-01-04 17:00:00,
2013-01-04 09:10:00,41.9,40.6,30.24,SSW,205,1.0,3.0,95,0.00,,,0.03,Wunderground PWS Mod,2013-01-04 17:10:00,
2013-01-04 09:20:00,41.8,40.5,30.25,SSW,192,1.0,2.0,95,0.00,,,0.03,Wunderground PWS Mod,2013-01-04 17:20:00,
2013-01-04 09:29:00,41.8,40.5,30.25,South,190,2.0,3.0,95,0.00,,,0.03,Wunderground PWS Mod,2013-01-04 17:29:00,
2013-01-04 09:39:00,41.8,40.5,30.25,SSE,167,2.0,4.0,95,0.00,,,0.03,Wunderground PWS Mod,2013-01-04 17:39:00,
2013-01-04 09:49:00,41.8,40.5,30.26,South,183,1.0,4.0,95,0.00,,,0.03,Wunderground PWS Mod,2013-01-04 17:49:00,
2013-01-04 09:59:00,41.9,40.6,30.26,SSE,164,1.0,4.0,95,0.00,,,0.03,Wunderground PWS Mod,2013-01-04 17:59:00,
2013-01-04 10:10:00,41.9,40.6,30.26,SE,135,2.0,6.0,95,0.00,,,0.03,Wunderground PWS Mod,2013-01-04 18:10:00,
2013-01-04 10:20:00,42.1,40.8,30.26,SE,138,2.0,3.0,95,0.00,,,0.03,Wunderground PWS Mod,2013-01-04 18:20:00,
2013-01-04 10:30:00,42.2,40.9,30.26,SSE,164,1.0,4.0,95,0.00,,,0.03,Wunderground PWS Mod,2013-01-04 18:30:00,
2013-01-04 10:40:00,42.2,40.9,30.26,South,186,2.0,5.0,95,0.00,,,0.03,Wunderground PWS Mod,2013-01-04 18:40:00,
2013-01-04 10:50:00,42.3,41.0,30.26,SE,142,2.0,4.0,95,0.00,,,0.03,Wunderground PWS Mod,2013-01-04 18:50:00,
2013-01-04 11:00:00,42.9,41.8,30.26,SSE,165,2.0,4.0,96,0.00,,,0.03,Wunderground PWS Mod,2013-01-04 19:00:00,
2013-01-04 11:10:00,43.8,42.7,30.26,South,172,1.0,4.0,96,0.00,,,0.03,Wunderground PWS Mod,2013-01-04 19:10:00,
2013-01-04 11:20:00,43.6,42.5,30.25,SE,136,2.0,4.0,96,0.00,,,0.03,Wunderground PWS Mod,2013-01-04 19:20:00,
2013-01-04 11:30:00,43.5,42.4,30.25,South,169,2.0,3.0,96,0.00,,,0.03,Wunderground PWS Mod,2013-01-04 19:30:00,
2013-01-04 11:39:00,44.1,43.0,30.25,SSW,201,2.0,4.0,96,0.00,,,0.03,Wunderground PWS Mod,2013-01-04 19:39:00,
2013-01-04 11:50:00,44.1,43.0,30.24,South,191,1.0,4.0,96,0.00,,,0.03,Wunderground PWS Mod,2013-01-04 19:50:00,
2013-01-04 12:00:00,43.6,42.3,30.24,South,180,2.0,4.0,95,0.00,,,0.03,Wunderground PWS Mod,2013-01-04 20:00:00,
2013-01-04 12:10:00,43.9,42.6,30.24,SSW,205,2.0,5.0,95,0.00,,,0.03,Wunderground PWS Mod,2013-01-04 20:10:00,
2013-01-04 12:19:00,43.8,42.5,30.24,SSE,149,2.0,4.0,95,0.00,,,0.03,Wunderground PWS Mod,2013-01-04 20:19:00,
2013-01-04 12:29:00,43.8,42.5,30.24,South,191,2.0,5.0,95,0.00,,,0.03,Wunderground PWS Mod,2013-01-04 20:29:00,
2013-01-04 12:39:00,44.3,43.0,30.24,SE,136,1.0,4.0,95,0.00,,,0.03,Wunderground PWS Mod,2013-01-04 20:39:00,
2013-01-04 12:50:00,44.2,42.6,30.24,SE,139,1.0,2.0,94,0.00,,,0.03,Wunderground PWS Mod,2013-01-04 20:50:00,
2013-01-04 12:59:00,44.6,43.0,30.24,South,185,1.0,4.0,94,0.00,,,0.03,Wunderground PWS Mod,2013-01-04 20:59:00,
2013-01-04 13:09:00,45.1,43.2,30.23,South,185,1.0,2.0,93,0.00,,,0.03,Wunderground PWS Mod,2013-01-04 21:09:00,
2013-01-04 13:19:00,44.8,42.6,30.23,SW,217,1.0,4.0,92,0.00,,,0.03,Wunderground PWS Mod,2013-01-04 21:19:00,
2013-01-04 13:29:00,45.4,43.2,30.23,SW,217,0.0,1.0,92,0.00,,,0.03,Wunderground PWS Mod,2013-01-04 21:29:00,
2013-01-04 13:40:00,45.1,42.3,30.22,SW,217,0.0,2.0,90,0.00,,,0.03,Wunderground PWS Mod,2013-01-04 21:40:00,
2013-01-04 13:49:00,44.8,42.0,30.22,SW,217,0.0,1.0,90,0.00,,,0.03,Wunderground PWS Mod,2013-01-04 21:49:00,
2013-01-04 13:59:00,45.1,42.1,30.22,SW,217,0.0,2.0,89,0.00,,,0.03,Wunderground PWS Mod,2013-01-04 21:59:00,
2013-01-04 14:10:00,45.1,42.1,30.22,SW,217,0.0,1.0,89,0.00,,,0.03,Wunderground PWS Mod,2013-01-04 22:10:00,
2013-01-04 14:20:00,45.1,42.1,30.21,SW,217,0.0,0.0,89,0.00,,,0.03,Wunderground PWS Mod,2013-01-04 22:20:00,
2013-01-04 14:30:00,45.8,42.7,30.21,SW,217,0.0,3.0,89,0.00,,,0.03,Wunderground PWS Mod,2013-01-04 22:30:00,
2013-01-04 14:40:00,45.2,42.2,30.21,SW,217,0.0,0.0,89,0.00,,,0.03,Wunderground PWS Mod,2013-01-04 22:40:00,
2013-01-04 14:50:00,44.9,42.1,30.20,SW,217,0.0,0.0,90,0.00,,,0.03,Wunderground PWS Mod,2013-01-04 22:50:00,
2013-01-04 15:00:00,44.6,41.8,30.20,SW,217,0.0,0.0,90,0.00,,,0.03,Wunderground PWS Mod,2013-01-04 23:00:00,
2013-01-04 15:10:00,44.6,42.1,30.20,SW,217,0.0,0.0,91,0.00,,,0.03,Wunderground PWS Mod,2013-01-04 23:10:00,
2013-01-04 15:20:00,44.6,42.1,30.20,SW,217,0.0,0.0,91,0.00,,,0.03,Wunderground PWS Mod,2013-01-04 23:20:00,
2013-01-04 15:30:00,44.2,41.7,30.20,SW,217,0.0,0.0,91,0.00,,,0.03,Wunderground PWS Mod,2013-01-04 23:30:00,
2013-01-04 15:40:00,43.9,41.4,30.20,SW,217,0.0,0.0,91,0.00,,,0.03,Wunderground PWS Mod,2013-01-04 23:40:00,
2013-01-04 15:49:00,43.6,41.4,30.20,SW,217,0.0,0.0,92,0.00,,,0.03,Wunderground PWS Mod,2013-01-04 23:49:00,
2013-01-04 16:00:00,43.3,41.1,30.20,SW,217,0.0,0.0,92,0.00,,,0.03,Wunderground PWS Mod,2013-01-05 00:00:00,
2013-01-04 16:10:00,43.2,41.0,30.21,SW,217,0.0,0.0,92,0.00,,,0.03,Wunderground PWS Mod,2013-01-05 00:10:00,
2013-01-04 16:20:00,43.1,40.9,30.21,SW,217,0.0,0.0,92,0.00,,,0.03,Wunderground PWS Mod,2013-01-05 00:20:00,
2013-01-04 16:30:00,42.8,40.6,30.21,SW,217,0.0,0.0,92,0.00,,,0.03,Wunderground PWS Mod,2013-01-05 00:30:00,
2013-01-04 16:40:00,42.2,40.0,30.20,SW,217,0.0,2.0,92,0.00,,,0.03,Wunderground PWS Mod,2013-01-05 00:40:00,
2013-01-04 16:50:00,42.2,40.0,30.20,N/A,-737280,0.0,0.0,92,0.00,,,0.03,Wunderground PWS Mod,2013-01-05 00:50:00,
2013-01-04 17:00:00,41.5,39.3,30.19,SW,217,0.0,1.0,92,0.00,,,0.03,Wunderground PWS Mod,2013-01-05 01:00:00,
2013-01-04 17:10:00,41.2,39.1,30.19,WSW,242,0.0,1.0,92,0.00,,,0.03,Wunderground PWS Mod,2013-01-05 01:10:00,
2013-01-04 17:20:00,41.5,39.3,30.18,WSW,242,0.0,1.0,92,0.00,,,0.03,Wunderground PWS Mod,2013-01-05 01:20:00,
2013-01-04 17:30:00,41.8,39.9,30.18,WSW,243,1.0,2.0,93,0.00,,,0.03,Wunderground PWS Mod,2013-01-05 01:30:00,
2013-01-04 17:40:00,42.1,40.2,30.17,WNW,295,1.0,2.0,93,0.00,,,0.03,Wunderground PWS Mod,2013-01-05 01:40:00,
2013-01-04 17:50:00,42.2,40.3,30.17,North,355,1.0,4.0,93,0.00,,,0.03,Wunderground PWS Mod,2013-01-05 01:50:00,
2013-01-04 18:00:00,42.2,40.3,30.17,North,355,1.0,2.0,93,0.00,,,0.03,Wunderground PWS Mod,2013-01-05 02:00:00,
2013-01-04 18:10:00,42.3,40.4,30.16,NNW,348,1.0,3.0,93,0.00,,,0.03,Wunderground PWS Mod,2013-01-05 02:10:00,
2013-01-04 18:20:00,42.2,40.3,30.15,NNW,348,0.0,2.0,93,0.00,,,0.03,Wunderground PWS Mod,2013-01-05 02:20:00,
2013-01-04 18:30:00,42.2,40.3,30.15,North,355,0.0,2.0,93,0.00,,,0.03,Wunderground PWS Mod,2013-01-05 02:30:00,
2013-01-04 18:39:00,42.1,40.2,30.14,North,355,0.0,0.0,93,0.00,,,0.03,Wunderground PWS Mod,2013-01-05 02:39:00,
2013-01-04 18:49:00,41.9,39.7,30.14,North,355,0.0,1.0,92,0.00,,,0.03,Wunderground PWS Mod,2013-01-05 02:49:00,
2013-01-04 18:59:00,41.8,39.6,30.14,North,355,0.0,1.0,92,0.00,,,0.03,Wunderground PWS Mod,2013-01-05 02:59:00,
2013-01-04 19:09:00,41.6,39.4,30.14,North,355,1.0,2.0,92,0.00,,,0.03,Wunderground PWS Mod,2013-01-05 03:09:00,
2013-01-04 19:20:00,41.5,39.3,30.14,North,355,1.0,2.0,92,0.00,,,0.03,Wunderground PWS Mod,2013-01-05 03:20:00,
2013-01-04 19:29:00,41.3,39.2,30.14,North,355,0.0,1.0,92,0.00,,,0.03,Wunderground PWS Mod,2013-01-05 03:29:00,
2013-01-04 19:39:00,41.2,39.1,30.15,North,355,0.0,1.0,92,0.00,,,0.03,Wunderground PWS Mod,2013-01-05 03:39:00,
2013-01-04 19:49:00,41.1,39.0,30.15,North,355,0.0,0.0,92,0.00,,,0.03,Wunderground PWS Mod,2013-01-05 03:49:00,
2013-01-04 19:59:00,40.9,38.8,30.15,North,355,0.0,0.0,92,0.00,,,0.03,Wunderground PWS Mod,2013-01-05 03:59:00,
2013-01-04 20:10:00,40.8,38.7,30.14,North,355,0.0,0.0,92,0.00,,,0.03,Wunderground PWS Mod,2013-01-05 04:10:00,
2013-01-04 20:20:00,40.8,38.7,30.14,N/A,-737280,0.0,0.0,92,0.00,,,0.03,Wunderground PWS Mod,2013-01-05 04:20:00,
2013-01-04 20:30:00,40.8,38.7,30.14,North,355,0.0,0.0,92,0.00,,,0.03,Wunderground PWS Mod,2013-01-05 04:30:00,
2013-01-04 20:40:00,40.8,38.7,30.14,North,355,0.0,0.0,92,0.00,,,0.03,Wunderground PWS Mod,2013-01-05 04:40:00,
2013-01-04 20:50:00,40.6,38.5,30.14,North,355,0.0,0.0,92,0.00,,,0.03,Wunderground PWS Mod,2013-01-05 04:50:00,
2013-01-04 21:00:00,40.8,38.7,30.14,North,355,0.0,0.0,92,0.00,,,0.03,Wunderground PWS Mod,2013-01-05 05:00:00,
2013-01-04 21:10:00,40.9,38.8,30.13,North,355,0.0,0.0,92,0.00,,,0.03,Wunderground PWS Mod,2013-01-05 05:10:00,
2013-01-04 21:20:00,40.9,38.8,30.13,WSW,244,0.0,1.0,92,0.00,,,0.03,Wunderground PWS Mod,2013-01-05 05:20:00,
2013-01-04 21:29:00,41.1,39.0,30.13,WSW,244,0.0,0.0,92,0.00,,,0.03,Wunderground PWS Mod,2013-01-05 05:29:00,
2013-01-04 21:39:00,41.1,39.0,30.13,WSW,244,0.0,1.0,92,0.00,,,0.03,Wunderground PWS Mod,2013-01-05 05:39:00,
2013-01-04 21:49:00,40.9,38.8,30.13,WSW,244,0.0,0.0,92,0.00,,,0.03,Wunderground PWS Mod,2013-01-05 05:49:00,
2013-01-04 21:59:00,40.8,38.7,30.13,WSW,244,0.0,0.0,92,0.00,,,0.03,Wunderground PWS Mod,2013-01-05 05:59:00,
2013-01-04 22:09:00,40.5,38.4,30.13,WSW,244,0.0,2.0,92,0.00,,,0.03,Wunderground PWS Mod,2013-01-05 06:09:00,
2013-01-04 22:20:00,40.5,38.4,30.12,WSW,244,0.0,2.0,92,0.00,,,0.03,Wunderground PWS Mod,2013-01-05 06:20:00,
2013-01-04 22:30:00,40.5,38.4,30.12,WSW,244,0.0,0.0,92,0.00,,,0.03,Wunderground PWS Mod,2013-01-05 06:30:00,
2013-01-04 22:40:00,40.6,38.5,30.12,WSW,244,0.0,1.0,92,0.00,,,0.03,Wunderground PWS Mod,2013-01-05 06:40:00,
2013-01-04 22:50:00,40.5,38.4,30.12,WSW,244,0.0,2.0,92,0.00,,,0.03,Wunderground PWS Mod,2013-01-05 06:50:00,
2013-01-04 23:00:00,40.5,38.4,30.12,WSW,244,1.0,2.0,92,0.00,,,0.03,Wunderground PWS Mod,2013-01-05 07:00:00,
2013-01-04 23:09:00,40.6,38.5,30.12,WSW,244,0.0,1.0,92,0.00,,,0.03,Wunderground PWS Mod,2013-01-05 07:09:00,
2013-01-04 23:19:00,40.6,38.5,30.11,WSW,244,0.0,0.0,92,0.00,,,0.03,Wunderground PWS Mod,2013-01-05 07:19:00,
2013-01-04 23:29:00,40.6,38.5,30.11,WSW,244,0.0,0.0,92,0.00,,,0.03,Wunderground PWS Mod,2013-01-05 07:29:00,
2013-01-04 23:39:00,40.5,38.4,30.11,WSW,244,0.0,0.0,92,0.00,,,0.03,Wunderground PWS Mod,2013-01-05 07:39:00,
2013-01-04 23:49:00,40.5,38.4,30.11,WSW,244,0.0,0.0,92,0.00,,,0.03,Wunderground PWS Mod,2013-01-05 07:49:00,
2013-01-04 23:59:00,40.5,38.4,30.11,WSW,244,0.0,0.0,92,0.00,,,0.03,Wunderground PWS Mod,2013-01-05 07:59:00,